Regional Weather Roundup
Issued by NWS Upton, NY

Current Version | Previous Version | Graphics & Text | Print | Product List | Glossary Off
Versions: 1 2 3 4 5 6 7 8 9 10 11 12 13 14 15 16 17 18 19 20 21 22 23 24 25 26 27 28 29 30 31 32 33 34 35 36 37 38 39 40 41 42 43 44 45 46 47 48 49 50

000
ASUS41 KOKX 201405
RWROKX

REGIONAL WEATHER ROUNDUP
NATIONAL WEATHER SERVICE NEW YORK NY
1000 AM EDT WED AUG 20 2014

NOTE: "FAIR" INDICATES FEW OR NO CLOUDS BELOW 12,000 FEET WITH NO
SIGNIFICANT WEATHER AND/OR OBSTRUCTIONS TO VISIBILITY.

NYZ071-072-176-178-NJZ106-104-201500-
NEW YORK CITY METRO AREA


CITY           SKY/WX    TMP DP  RH WIND       PRES   REMARKS
CENTRAL PARK   MOSUNNY   76  57  51 VRB3      30.03R
LAGUARDIA APRT MOSUNNY   76  64  66 NE8       30.00R
KENNEDY INTL   MOSUNNY   77  58  51 VRB3      30.01R
NEWARK/LIBERTY PTSUNNY   77  61  57 CALM      30.00R
BRNX BOT. GARD   N/A     75  63  64 SE6       30.01R
TETERBORO      PTSUNNY   77  64  64 S6        29.99R
$$

NYZ177-179-078>081-201500-
LONG ISLAND NEW YORK

CITY           SKY/WX    TMP DP  RH WIND       PRES   REMARKS
FARMINGDALE    SUNNY     74  60  61 CALM      30.01R
ISLIP          MOSUNNY   75  58  55 CALM      30.00R
SHIRLEY        SUNNY     76  62  62 VRB3      30.02R
WESTHAMPTON    SUNNY     75  64  68 CALM      30.02S
MONTAUK POINT    N/A     67  64  90 NW5       30.03R
$$

NYZ052-065-067-201500-
HUDSON VALLEY

CITY           SKY/WX    TMP DP  RH WIND       PRES   REMARKS
WHITE PLAINS   MOSUNNY   73  63  70 CALM      30.01R
NEWBURGH       PTSUNNY   73  66  78 VRB6      30.02R
MONTGOMERY     CLOUDY    72  64  76 SW3       30.01R
POUGHKEEPSIE   PTSUNNY   75  64  68 SW5       29.99R
ALBANY         PTSUNNY   69  60  73 S3        30.00R
$$

NJZ001-105-106-008-010-013-015-019>022-104-201500-
NEW JERSEY

CITY           SKY/WX    TMP DP  RH WIND       PRES   REMARKS
NEWARK/LIBERTY PTSUNNY   77  61  57 CALM      30.00R
TETERBORO      PTSUNNY   77  64  64 S6        29.99R
CALDWELL       CLOUDY    74  64  71 CALM      30.01R
MORRISTOWN     CLOUDY    77  63  61 CALM      30.01R
SOMERVILLE     CLOUDY    76  63  64 VRB3      29.99R
LINDEN         PTSUNNY   80  63  55 S5        30.02R
SUSSEX         CLOUDY    75  64  68 VRB3      30.01R
ANDOVER        NOT AVBL
TRENTON        CLOUDY    75  63  66 CALM      30.00R
MILLVILLE      PTSUNNY   76  63  64 VRB3      30.00R
ATLANTIC CITY  SUNNY     77  66  68 E8        30.00R
WRIGHTSTOWN    MOSUNNY   77  64  65 E5        29.98R
TOMS RIVER     SUNNY     75  63  64 CALM      30.01R
BELMAR         SUNNY     75  61  60 NE8       30.01R
$$

PAZ047>061-062-071-201500-
EASTERN PENNSYLVANIA

CITY           SKY/WX    TMP DP  RH WIND       PRES   REMARKS
PHILADELPHIA   PTSUNNY   76  63  64 CALM      30.01R
ALLENTOWN      SUNNY     76  64  66 VRB5      30.01R
SCRANTON       SUNNY     75  62  64 SW8       29.99R
$$

CTZ002-004>006-009-010-012-RIZ004-006-007-MAZ004-011-015-201500-
SOUTHERN NEW ENGLAND
 IN CT

CITY           SKY/WX    TMP DP  RH WIND       PRES   REMARKS
BRADLEY INTL   PTSUNNY   70  59  68 CALM      30.01S
HARTFORD       SUNNY     69  61  75 CALM      30.01S
DANBURY        SUNNY     73  64  73 CALM      30.02S
WTRBRY/OXFORD  MOSUNNY   66  63  88 CALM      30.05R
BRIDGEPORT     MOSUNNY   70  65  84 E8        30.01R
MERIDEN        CLOUDY    67  62  84 W3        30.02R
NEW HAVEN      CLOUDY    70  65  84 NW5       30.02R HAZE
CHESTER        PTSUNNY   66  66 100 CALM      30.03S
GROTON         SUNNY     70  64  81 W6        30.01R
WILLIMANTIC    SUNNY     66  61  84 CALM      30.03R

 IN RI

CITY           SKY/WX    TMP DP  RH WIND       PRES   REMARKS
PROVIDENCE     PTSUNNY   75  61  61 VRB5      30.01S
BLOCK ISLAND   SUNNY     70  61  73 NE3       30.02R
WESTERLY       SUNNY     73  60  63 CALM      30.02R

 IN MA

CITY           SKY/WX    TMP DP  RH WIND       PRES   REMARKS
BOSTON         MOSUNNY   68  57  68 E6        30.02R
WORCESTER      SUNNY     71  55  56 E5        30.04R
WESTFIELD      SUNNY     69  59  70 CALM      30.02S
PROVINCETOWN   SUNNY     70  61  73 MISG      30.02S
NANTUCKET      SUNNY     70  56  61 E8        30.00S
$$

ANZ330-335-338-340-345-350-353-355-201500-
COASTAL MARINE OBSERVATIONS


STATION/POSITION TIME  SKY/WX   TEMP    WIND        PRES    VSBY  WAVE
                                AIR SEA DIR/SP/G                  HT/PER
                 (UTC)          (F)     (DEG/KT/KT) (MB)    (MI)  (FT/S)
NY HARB ENTRANCE NOT AVBL
4S FIRE IS       NOT AVBL
23SW MTP         1400            70 69              1015.9          1/ 6
HUDSON CANYON    1400            72 73   40/ 12/ 14 1015.3          3/ 5
EXECUTION ROCKS  1400            73 74   40/  4/  6   N/A
WESTERN LI SOUND 1400            70      70/  6/  8   N/A           0
CENTRAL LI SOUND 1300            67 72   90/  4/  6   N/A           0
EASTERN LI SOUND 1300            66 68  300/  4/  6   N/A
ROBBINS REEF     1400            72     180/  8/  9   N/A
$$


>>>>>>>>>>>>>>>>>>>>>>>>>>>> KEY <<<<<<<<<<<<<<<<<<<<<<<<<<<
>                                                          <
>     SKY/WX - SKY CONDITION/PRESENT WEATHER               <
>     TMP    - TEMPERATURE IN FAHRENHEIT                   <
>     DP     - DEWPOINT IN FAHRENHEIT                      <
>     RH     - RELATIVE HUMIDITY IN PERCENT                <
>     WIND   - DIRECTION AND SPEED IN MPH                  <
>     PRES   - MEAN SEA LEVEL PRESSURE IN INCHES OF HG     <
>     WCI    - WIND CHILL INDEX                            <
>     VSB    - VISIBILITY IN MILES                         <
>     HX     - HEAT INDEX                                  <
>     TC     - TEMPERATURE IN CELSIUS                      <
>     VRB    - VARIABLE WIND DIRECTION                     <
>                                                          <
>>>>>>>>>>>>>>>>>>>>>>>>>>>> KEY <<<<<<<<<<<<<<<<<<<<<<<<<<<




USA.gov is the U.S. government's official web portal to all federal, state and local government web resources and services.